Holloman Air Force Base Alamogordo US
ICAO: KHMN
IATA: HMN
Category: Large
Scheduled Services: No

Elevation: 4093 ft
TransAlt. 18000 ft.

Airport Communications:
ARMY AVIATION:22.93
APP:120.6
ATIS:27.35
CLNC DEL:126.7
CHEROKEE MISSION:126.9
DEP:128.1
GND:127.05
PMSV METRO:34.655
COMD POST:38.13
PTD:37.22
TWR:119.3

KHMN Zoom In..

If you have problems with the map follow the link
https://www.worldairports.se/pages/airport.php?
ICAO=KHMN

Runways:

(A) RW 04 length 10580 ft width 300 ft
---- / hdg 37

(B) RW 07 length 12911 ft width 150 ft
---- / hdg 70

(C) RW 16 length 12132 ft width 150 ft
ILS 108.90 / hdg 158

(D) RW 22 length 10580 ft width 300 ft
ILS 111.70 / hdg 217

(E) RW 25 length 12911 ft width 150 ft
---- / hdg 250

(F) RW 34 length 12132 ft width 150 ft
---- / hdg 338

Location; KHMN
Day. 24 / Time. 07.58 Zulu
* Altimeter: 30.08
* Temperature: -03° c. -26.6°f.
* Wind from: 310° Speed 05 kn.
Dewpoint: -12° c.
Visibility: 10 Statute Miles.
Clouds: Clear (automated report).

KHMN 240758Z AUTO 31005KT 10SM CLR M03/M12 A3008 RMK AO2 SLP182 T10331125 $


Wind From 310°
Speed 05 kn.

 
 
jpsmedia.com for Web Design worldairports.se 2019   terms of use